YMA903 YBBN-YSSY

Flight info

Callsign YMA903
Flight time N/A
Altitude 40000
Route SANEG H91 IGDAM H652 BOREE
Aircraft A339/H-SADE1E2E3GHIJ3J5M1P2RWXY/LB2D1

Departure

Time 2026-05-04 08:41
Airport Brisbane International Airport (YBBN)

Arrival

Time N/A
Airport Sydney Kingsford Smith International Airport (YSSY)
Time Latitude Longitude Altitude Speed Heading
2026-05-04 08:29 -27.40232 153.11204 40 ft 0 kts 297°
2026-05-04 08:31 -27.40239 153.11220 40 ft 4 kts 297°
2026-05-04 08:33 -27.40289 153.11267 40 ft 0 kts 20°
2026-05-04 08:35 -27.40218 153.11331 41 ft 23 kts 45°
2026-05-04 08:35 -27.40206 153.11364 40 ft 1 kts 144°
2026-05-04 08:35 -27.40215 153.11374 40 ft 5 kts 132°
2026-05-04 08:35 -27.40229 153.11440 40 ft 22 kts 81°
2026-05-04 08:37 -27.38842 153.12281 40 ft 42 kts 28°
2026-05-04 08:37 -27.38571 153.12438 40 ft 46 kts 26°
2026-05-04 08:37 -27.38279 153.12598 40 ft 47 kts 26°
2026-05-04 08:38 -27.38085 153.12707 40 ft 46 kts 28°
2026-05-04 08:38 -27.37713 153.12925 40 ft 43 kts 26°
2026-05-04 08:38 -27.37464 153.13062 40 ft 38 kts 27°
2026-05-04 08:40 -27.38824 153.12665 42 ft 159 kts 208°
2026-05-04 08:40 -27.38837 153.12657 43 ft 160 kts 208°
2026-05-04 08:40 -27.39418 153.12289 47 ft 184 kts 209°
2026-05-04 08:41 -27.40466 153.11589 923 ft 160 kts 211°
2026-05-04 08:41 -27.41283 153.11030 1662 ft 139 kts 185°
2026-05-04 08:41 -27.42311 153.11151 1782 ft 160 kts 152°
2026-05-04 08:41 -27.43379 153.11683 2143 ft 176 kts 152°
2026-05-04 08:42 -27.44544 153.12285 2529 ft 194 kts 152°
2026-05-04 08:42 -27.45830 153.12955 2932 ft 212 kts 153°
2026-05-04 08:42 -27.47219 153.13686 3399 ft 229 kts 153°
2026-05-04 08:42 -27.48685 153.14447 4111 ft 234 kts 156°
2026-05-04 08:43 -27.50267 153.14797 4854 ft 240 kts 180°
2026-05-04 08:43 -27.51968 153.14511 5372 ft 256 kts 191°
2026-05-04 08:43 -27.53783 153.14038 5819 ft 273 kts 192°
2026-05-04 08:43 -27.55646 153.13498 6495 ft 281 kts 195°
2026-05-04 08:44 -27.57503 153.12807 7255 ft 284 kts 199°
2026-05-04 08:44 -27.59359 153.12071 7990 ft 288 kts 199°
2026-05-04 08:46 -27.73916 153.07052 11710 ft 356 kts 198°
2026-05-04 08:46 -27.75487 153.06527 12140 ft 359 kts 198°
2026-05-04 08:46 -27.78716 153.05450 13044 ft 364 kts 199°
2026-05-04 08:46 -27.80323 153.04913 13480 ft 366 kts 199°
2026-05-04 08:47 -27.83548 153.03667 14315 ft 370 kts 204°
2026-05-04 08:47 -27.85172 153.02965 14728 ft 373 kts 204°
2026-05-04 08:47 -27.88422 153.01536 15568 ft 378 kts 205°
2026-05-04 08:47 -27.90065 153.00813 15993 ft 380 kts 205°
2026-05-04 08:48 -27.92548 152.99721 16625 ft 384 kts 205°
2026-05-04 08:48 -27.95043 152.98626 17236 ft 388 kts 206°
2026-05-04 08:48 -27.97575 152.97514 17849 ft 392 kts 206°
2026-05-04 08:48 -28.01020 152.96003 18690 ft 396 kts 206°
2026-05-04 08:49 -28.02741 152.95247 19104 ft 398 kts 206°
2026-05-04 08:50 -28.18658 152.88208 22655 ft 414 kts 208°
2026-05-04 08:50 -28.21347 152.87011 23202 ft 416 kts 208°
2026-05-04 08:51 -28.24981 152.85393 23922 ft 419 kts 208°
2026-05-04 08:51 -28.26811 152.84580 24258 ft 421 kts 209°
2026-05-04 08:51 -28.29667 152.83306 24762 ft 425 kts 209°
2026-05-04 08:51 -28.33387 152.81647 25424 ft 428 kts 209°
2026-05-04 08:52 -28.36181 152.80400 25895 ft 431 kts 209°
2026-05-04 08:52 -28.38980 152.79151 26357 ft 433 kts 210°
2026-05-04 08:52 -28.40828 152.78326 26648 ft 435 kts 210°
2026-05-04 08:52 -28.43670 152.77058 27083 ft 437 kts 210°
2026-05-04 08:53 -28.46530 152.75779 27506 ft 440 kts 210°
2026-05-04 08:54 -28.66891 152.66656 30330 ft 453 kts 211°
2026-05-04 08:55 -28.69853 152.65325 30732 ft 454 kts 211°
2026-05-04 08:55 -28.72799 152.64001 31122 ft 455 kts 211°
2026-05-04 08:55 -28.75734 152.62683 31454 ft 457 kts 212°
2026-05-04 08:55 -28.79711 152.60893 32017 ft 456 kts 212°
2026-05-04 08:57 -28.98124 152.50713 35228 ft 430 kts 219°
2026-05-04 09:01 -29.35915 152.28105 39037 ft 435 kts 221°
2026-05-04 09:01 -29.39508 152.25942 39410 ft 434 kts 220°
2026-05-04 09:01 -29.42256 152.24294 39686 ft 434 kts 220°
2026-05-04 09:01 -29.44042 152.23222 39800 ft 435 kts 220°
2026-05-04 09:02 -29.46737 152.21598 40033 ft 435 kts 220°
2026-05-04 09:02 -29.50349 152.19426 40223 ft 437 kts 220°
2026-05-04 09:02 -29.52170 152.18330 40221 ft 437 kts 220°
2026-05-04 09:03 -29.58466 152.14536 40235 ft 437 kts 221°
2026-05-04 09:03 -29.63967 152.11226 40240 ft 436 kts 220°
2026-05-04 09:04 -29.69593 152.08354 40245 ft 446 kts 214°
2026-05-04 09:04 -29.74531 152.06446 40238 ft 454 kts 209°
2026-05-04 09:05 -29.80778 152.04681 40255 ft 462 kts 206°
2026-05-04 09:05 -29.88164 152.02774 40246 ft 462 kts 206°
2026-05-04 09:06 -29.93425 152.01405 40252 ft 461 kts 206°
2026-05-04 09:08 -30.19717 151.94515 40198 ft 462 kts 206°
2026-05-04 09:08 -30.24981 151.93131 40189 ft 463 kts 206°
2026-05-04 09:09 -30.31235 151.91357 40205 ft 456 kts 210°
2026-05-04 09:09 -30.38151 151.88511 40200 ft 446 kts 215°
2026-05-04 09:10 -30.42971 151.86267 40185 ft 447 kts 216°
2026-05-04 09:10 -30.48784 151.83545 40192 ft 446 kts 216°
2026-05-04 09:11 -30.54557 151.80852 40191 ft 447 kts 216°
2026-05-04 09:11 -30.60377 151.78134 40194 ft 447 kts 216°
2026-05-04 09:12 -30.67290 151.74903 40193 ft 447 kts 216°
2026-05-04 09:14 -30.89717 151.64389 40200 ft 450 kts 216°
2026-05-04 09:14 -30.95716 151.61568 40202 ft 450 kts 216°
2026-05-04 09:15 -31.02593 151.58329 40203 ft 447 kts 216°
2026-05-04 09:15 -31.07499 151.56017 40196 ft 448 kts 216°
2026-05-04 09:17 -31.34916 151.43037 40176 ft 448 kts 216°
2026-05-04 09:18 -31.39883 151.40691 40166 ft 449 kts 215°
2026-05-04 09:18 -31.45910 151.37997 40176 ft 450 kts 214°
2026-05-04 09:19 -31.52892 151.34897 40172 ft 453 kts 215°
2026-05-04 09:19 -31.57874 151.32674 40181 ft 452 kts 215°
2026-05-04 09:20 -31.63886 151.29988 40175 ft 450 kts 215°
2026-05-04 09:20 -31.69799 151.27333 40164 ft 452 kts 215°